Location: Bear Branch Nature Center
(39.6445°N, 76.9901°W)
Time: 14:49:11
(UTC-05:00)

Daily predictions for brighter satellites

Satellite Brightness Start Highest point End
(mag) Time Altitude Azimuth Time Altitude Azimuth Time Altitude Azimuth
Cosmos 540 Rocket 3.7 17:33:46 10° S 17:38:46 52° ESE 17:43:47 10° NNE
USA 215 4.0 17:37:02 10° E 17:42:47 34° NNE 17:48:32 10° NW
Cosmos 2237 Rocket 2.3 17:37:18 10° S 17:42:49 61° ESE 17:48:23 10° NNE
Cosmos 44 Rocket 3.7 17:38:07 10° SW 17:43:14 71° WNW 17:48:18 10° NNE
Cosmos 2084 3.7 17:39:43 10° SW 17:43:35 59° NW 17:47:21 10° NNE
NOSS 0 Rocket 4.0 17:38:34 10° SSW 17:44:46 76° ESE 17:51:00 10° NNE
COSMOS 2428 4.0 17:42:19 10° SW 17:47:41 41° WNW 17:53:06 10° N
BREEZE-M DEB (TANK) 3.2 17:40:37 10° NW 17:49:00 72° SW 17:52:07 10° SE
SL-16 R/B 3.1 17:45:08 10° SSE 17:49:54 29° ESE 17:54:39 10° NE
Cosmos 1340 Rocket 3.7 17:46:50 10° SSE 17:50:15 28° E 17:53:39 10° NNE
Cosmos 1300 2.8 17:46:49 10° N 17:50:34 52° E 17:54:19 10° SSE
SL-14 R/B 3.4 17:47:38 10° S 17:51:26 53° E 17:55:20 10° NNE
Cosmos 1634 Rocket 4.0 17:45:58 10° N 17:52:10 76° E 17:58:19 10° SSE
Abrixas 2.4 17:50:03 10° WSW 17:52:58 88° NW 17:55:48 11° ENE
Cosmos 1461 3.9 17:49:56 10° S 17:53:31 27° ESE 17:57:01 10° NE
Cosmos 2058 3.3 17:50:16 10° SSE 17:54:08 41° E 17:58:01 10° NNE
Cosmos 1484 Rocket 2.9 17:51:09 10° SSE 17:54:59 55° ENE 17:58:54 10° N
CZ-4 R/B 4.5 17:54:45 10° SSE 17:58:53 88° WSW 18:03:04 10° NNW
Cosmos 304 Rocket 4.3 17:56:26 10° S 18:00:52 39° ESE 18:05:20 10° NE
Cosmos 2297 4.3 17:56:39 10° N 18:01:54 36° ENE 18:07:08 10° SE
Lacrosse 5 4.1 18:05:16 10° NNW 18:07:00 12° N 18:08:44 10° N
Cosmos 1844 Rocket 4.2 18:03:40 10° NW 18:08:55 40° WSW 18:14:07 10° S
Meteor 1-28 Rocket 3.3 18:11:52 10° NNE 18:15:30 52° E 18:19:08 10° S
Cosmos 1356 Rocket 4.1 18:12:21 10° SSE 18:15:51 30° E 18:19:10 11° NNE
OTV 4 2.7 18:13:42 10° WSW 18:16:05 22° SSW 18:18:27 10° SSE
Cosmos 1125 Rocket 3.9 18:11:31 10° NNW 18:16:42 69° WSW 18:21:50 10° S
Transit 2A Rocket 4.4 18:12:41 10° NNW 18:17:01 74° ENE 18:21:20 10° SE
CZ-2C R/B 4.3 18:12:42 10° SSW 18:17:14 35° W 18:21:40 10° NNW
Meteor 2-10 3.9 18:12:44 10° N 18:17:51 73° E 18:23:05 10° SSE
CENTAUR R/B 4.1 18:12:34 10° W 18:17:54 29° NW 18:23:51 10° NNE
YAOGAN 1 4.1 18:14:40 10° SSW 18:18:43 39° W 18:22:48 10° NNW
COSMO-SKYMED 1 2.6 18:15:40 10° NNE 18:20:02 89° NW 18:24:23 10° SSW
Cosmos 1707 Rocket 4.0 18:16:02 10° N 18:20:03 37° ENE 18:24:05 10° SE
USA 229 DEB 4.5 18:14:41 10° S 18:20:30 31° ESE 18:24:43 17° ENE
USA 229 4.5 18:14:48 10° S 18:20:37 30° ESE 18:24:46 17° ENE
DMSP B5D1-3 4.5 18:16:22 10° NNE 18:21:27 66° ESE 18:26:30 10° S
Resurs 01 Rocket 2.8 18:26:17 21° E 18:27:07 22° ENE 18:30:32 10° NNE
FENGYUN 3A 4.4 18:23:17 10° ESE 18:27:46 28° ENE 18:32:15 10° N
Meteor 1-11 4.4 18:23:52 10° SSW 18:29:33 80° W 18:35:20 10° N
Cosmos 1666 Rocket 3.8 18:25:36 10° SSE 18:29:41 43° E 18:33:50 10° NNE
Lacrosse 5 rocket 1.1 18:26:23 10° NW 18:30:12 87° SW 18:34:14 10° SE
METEOR-M 4.1 18:27:38 10° SSE 18:32:51 58° ENE 18:38:07 10° N
Cosmos 1184 Rocket 3.5 18:30:04 10° SSE 18:33:05 32° E 18:33:17 32° E
Timation 1 Rocket 4.3 18:27:16 10° NNW 18:33:17 72° ENE 18:39:17 10° SSE
Cosmos 1538 Rocket 4.1 18:30:42 10° S 18:35:52 59° ESE 18:40:44 12° NNE
Cosmos 2151 4.2 18:32:12 10° SSW 18:36:11 42° W 18:40:12 10° N
Iridium 4 Rocket 3.8 18:35:02 10° SSE 18:39:02 31° E 18:39:48 29° ENE
Cosmos 2279 Rocket 4.2 18:34:39 10° N 18:40:52 76° W 18:47:05 10° S
FengYun 1-2 T 4.5 18:40:35 10° SE 18:45:48 43° ENE 18:51:00 10° N
ALOS 2.7 18:41:50 10° SE 18:46:07 38° ENE 18:50:26 10° N
NOAA 12 4.0 18:43:44 10° SSE 18:48:58 88° ENE 18:54:16 10° NNW
Cosmos 2333 Rocket 3.9 18:45:40 10° WSW 18:50:33 30° WNW 18:55:30 10° N
Cosmos 2219 Rocket 4.3 18:47:32 10° WSW 18:51:57 23° NW 18:56:24 10° N
Cosmos 1626 2.1 18:50:05 10° S 18:53:49 81° W 18:56:51 15° N
Cosmos 1603 4.2 18:49:17 10° S 18:54:20 35° ESE 18:55:01 34° E
SJ-6B 2.8 18:53:56 10° SSE 18:58:01 88° W 19:02:10 10° NNW
Nadezhda 4 Rocket 3.9 18:53:26 10° S 18:59:41 83° E 19:06:02 10° N
Cosmos 2242 Rocket 3.6 18:56:50 10° N 19:01:10 54° E 19:05:30 10° SSE
Cosmos 1703 4.2 18:58:27 10° SSW 19:02:13 47° W 19:05:59 10° N
Cosmos 2278 Rocket 4.0 18:58:16 10° NW 19:03:16 33° WSW 19:08:15 10° SSW
Cosmos 1455 2.2 19:02:58 10° N 19:06:46 81° W 19:10:35 10° S
SL-19 R/B 4.2 19:06:35 10° SSE 19:12:31 83° ENE 19:18:10 10° NNW
Lacrosse 4 Rocket 3.0 19:10:27 10° NNW 19:12:09 23° N 19:12:09 23° N
Cosmos 773 Rocket 3.9 19:12:00 10° SSW 19:17:10 88° WNW 19:19:20 36° NNE
FREGAT/IRIS 4.1 19:15:24 10° SSW 19:18:16 37° W 19:21:08 10° NNW
Cosmos 1092 Rocket 3.9 19:13:42 10° S 19:20:02 86° E 19:26:25 10° N
USA 215 3.2 19:21:36 28° SE 19:25:21 85° SW 19:31:56 10° NW
Sich 1 4.1 19:21:23 10° SSW 19:25:37 45° W 19:29:41 11° N
Cosmos 2237 Rocket 4.4 19:23:13 10° W 19:27:19 20° NW 19:31:27 10° N
Cosmos 2369 Rocket 4.0 19:27:49 10° N 19:29:27 18° N 19:29:27 18° N
Cosmos 1633 Rocket 4.2 19:28:55 10° SSW 19:33:06 42° WNW 19:36:07 17° NNW
SL-16 R/B 3.4 19:28:33 10° SW 19:33:48 39° WNW 19:37:58 16° N
Cosmos 2195 Rocket 4.3 19:39:10 10° S 19:45:15 89° E 19:46:13 66° N
Lacrosse 5 4.4 19:49:48 10° NNW 19:50:06 11° N 19:50:06 11° N
CZ-3A R/B 3.4 19:55:49 10° NW 20:00:18 59° SW 20:01:31 48° S
Resurs 01 Rocket 3.3 20:03:50 32° W 20:03:50 32° W 20:07:25 10° NNW
USA 229 DEB 4.2 20:04:25 10° SW 20:11:06 53° NW 20:12:13 48° NNW
USA 229 4.2 20:04:31 10° SW 20:11:12 53° NW 20:12:17 49° NNW
